Tracking 25711 objects as of 23-May-2022
HD Live streaming from Space Station
objects crossing your sky now

COSMOS 1275 DEB

Track COSMOS 1275 DEB now!
10-day predictions


NORAD ID: 42103
Int'l Code: 1981-053PP
Perigee: 860.6 km
Apogee: 901.5 km
Inclination: 83.2 °
Period: 102.4 minutes
Semi major axis: 7252 km
RCS: Unknown
Launch date: June 4, 1981
Source: Commonwealth of Independent States (former USSR) (CIS)
Launch site: PLESETSK MISSILE AND SPACE COMPLEX (PKMTR)

Note: This is SATELLITE DEBRIS
aabbcc
Your satellite tracking list
Your tracking list is empty




NASA's NSSDC Master Catalog

Two Line Element Set (TLE):
1 42103U 81053PP  22142.30421480  .00002297  00000-0  13929-2 0  9996
2 42103  83.1789 353.5157 0028234 154.6396 205.6171 14.05767106435281
Source of the keplerian elements: AFSPC